Time,TemperatureF,DewpointF,PressureIn,WindDirection,WindDirectionDegrees,WindSpeedMPH,WindSpeedGustMPH,Humidity,HourlyPrecipIn,Conditions,Clouds,dailyrainin,SoftwareType,DateUTC
2013-09-11 00:00:00,78.7,67.0,29.91,North,355,0.0,2.0,68,0.00,,,0.00,weatherlink.com 1.10,2013-09-11 05:00:00,
2013-09-11 00:15:00,78.2,67.0,29.91,SSE,156,0.0,3.0,69,0.00,,,0.00,weatherlink.com 1.10,2013-09-11 05:15:00,
2013-09-11 00:30:00,77.6,67.0,29.91,SSE,156,0.0,1.0,70,0.00,,,0.00,weatherlink.com 1.10,2013-09-11 05:30:00,
2013-09-11 00:45:00,77.0,67.0,29.91,SSE,156,0.0,0.0,71,0.00,,,0.00,weatherlink.com 1.10,2013-09-11 05:45:00,
2013-09-11 01:00:00,76.7,67.0,29.92,SSE,156,0.0,1.0,72,0.00,,,0.00,weatherlink.com 1.10,2013-09-11 06:00:00,
2013-09-11 01:15:00,76.2,67.0,29.92,SSE,156,0.0,0.0,74,0.00,,,0.00,weatherlink.com 1.10,2013-09-11 06:15:00,
2013-09-11 01:30:00,75.4,67.0,29.93,SSE,156,0.0,1.0,75,0.00,,,0.00,weatherlink.com 1.10,2013-09-11 06:30:00,
2013-09-11 01:45:00,75.4,67.0,29.92,WNW,298,0.0,1.0,74,0.00,,,0.00,weatherlink.com 1.10,2013-09-11 06:45:00,
2013-09-11 02:00:00,75.0,67.0,29.93,NW,305,0.0,2.0,75,0.00,,,0.00,weatherlink.com 1.10,2013-09-11 07:00:00,
2013-09-11 02:15:00,74.1,66.0,29.93,NNW,344,2.0,3.0,75,0.00,,,0.00,weatherlink.com 1.10,2013-09-11 07:15:00,
2013-09-11 02:30:00,73.1,66.0,29.93,NNW,327,1.0,5.0,79,0.00,,,0.00,weatherlink.com 1.10,2013-09-11 07:30:00,
2013-09-11 02:45:00,72.4,66.0,29.94,North,11,0.0,3.0,81,0.00,,,0.00,weatherlink.com 1.10,2013-09-11 07:45:00,
2013-09-11 03:00:00,71.9,67.0,29.93,North,360,0.0,2.0,83,0.00,,,0.00,weatherlink.com 1.10,2013-09-11 08:00:00,
2013-09-11 03:15:00,71.4,66.0,29.96,North,360,1.0,2.0,84,0.00,,,0.00,weatherlink.com 1.10,2013-09-11 08:15:00,
2013-09-11 03:30:00,70.9,66.0,29.95,North,360,0.0,4.0,85,0.00,,,0.00,weatherlink.com 1.10,2013-09-11 08:30:00,
2013-09-11 03:46:00,70.7,66.0,29.95,North,355,0.0,2.0,86,0.00,,,0.00,weatherlink.com 1.10,2013-09-11 08:46:00,
2013-09-11 04:01:00,70.5,66.0,29.94,North,355,0.0,0.0,86,0.00,,,0.00,weatherlink.com 1.10,2013-09-11 09:01:00,
2013-09-11 04:16:00,70.1,66.0,29.95,North,355,0.0,0.0,87,0.00,,,0.00,weatherlink.com 1.10,2013-09-11 09:16:00,
2013-09-11 04:31:00,69.4,66.0,29.96,North,355,0.0,1.0,88,0.00,,,0.00,weatherlink.com 1.10,2013-09-11 09:31:00,
2013-09-11 04:46:00,69.2,66.0,29.96,North,355,0.0,0.0,88,0.00,,,0.00,weatherlink.com 1.10,2013-09-11 09:46:00,
2013-09-11 05:01:00,68.7,65.0,29.96,North,355,0.0,0.0,89,0.00,,,0.00,weatherlink.com 1.10,2013-09-11 10:01:00,
2013-09-11 05:16:00,68.5,66.0,29.96,North,355,0.0,1.0,90,0.00,,,0.00,weatherlink.com 1.10,2013-09-11 10:16:00,
2013-09-11 05:31:00,68.3,65.0,29.96,North,355,0.0,0.0,90,0.00,,,0.00,weatherlink.com 1.10,2013-09-11 10:31:00,
2013-09-11 05:46:00,67.9,65.0,29.98,North,355,0.0,0.0,90,0.00,,,0.00,weatherlink.com 1.10,2013-09-11 10:46:00,
2013-09-11 06:01:00,67.5,65.0,29.98,North,355,0.0,0.0,91,0.00,,,0.00,weatherlink.com 1.10,2013-09-11 11:01:00,
2013-09-11 06:16:00,67.2,65.0,29.98,North,355,0.0,0.0,92,0.00,,,0.00,weatherlink.com 1.10,2013-09-11 11:16:00,
2013-09-11 06:31:00,66.7,64.0,29.98,North,355,0.0,0.0,92,0.00,,,0.00,weatherlink.com 1.10,2013-09-11 11:31:00,
2013-09-11 06:46:00,66.6,65.0,30.01,North,355,0.0,0.0,93,0.00,,,0.00,weatherlink.com 1.10,2013-09-11 11:46:00,
2013-09-11 07:01:00,67.5,66.0,30.05,ENE,62,1.0,4.0,94,0.00,,,0.00,weatherlink.com 1.10,2013-09-11 12:01:00,
2013-09-11 07:16:00,68.2,67.0,30.03,NNE,17,2.0,4.0,94,0.01,,,0.01,weatherlink.com 1.10,2013-09-11 12:16:00,
2013-09-11 07:31:00,68.2,66.0,30.02,North,10,1.0,3.0,92,0.01,,,0.01,weatherlink.com 1.10,2013-09-11 12:31:00,
2013-09-11 07:46:00,68.1,65.0,30.02,NNW,346,0.0,1.0,91,0.01,,,0.01,weatherlink.com 1.10,2013-09-11 12:46:00,
2013-09-11 08:01:00,67.9,66.0,30.01,NNW,346,0.0,0.0,92,0.01,,,0.01,weatherlink.com 1.10,2013-09-11 13:01:00,
2013-09-11 08:16:00,67.7,65.0,30.01,NNW,346,0.0,0.0,91,0.00,,,0.01,weatherlink.com 1.10,2013-09-11 13:16:00,
2013-09-11 08:31:00,67.5,65.0,30.00,NNW,346,0.0,1.0,91,0.00,,,0.01,weatherlink.com 1.10,2013-09-11 13:31:00,
2013-09-11 08:46:00,67.6,65.0,29.97,NNW,346,0.0,0.0,92,0.00,,,0.01,weatherlink.com 1.10,2013-09-11 13:46:00,
2013-09-11 09:01:00,67.8,66.0,29.98,NNW,346,0.0,0.0,93,0.00,,,0.01,weatherlink.com 1.10,2013-09-11 14:01:00,
2013-09-11 09:16:00,67.7,65.0,29.99,NNW,346,0.0,0.0,92,0.00,,,0.01,weatherlink.com 1.10,2013-09-11 14:16:00,
2013-09-11 09:31:00,68.0,66.0,29.99,NNW,346,0.0,0.0,93,0.00,,,0.01,weatherlink.com 1.10,2013-09-11 14:31:00,
2013-09-11 09:46:00,68.5,66.0,29.98,NNW,346,0.0,0.0,92,0.00,,,0.01,weatherlink.com 1.10,2013-09-11 14:46:00,
2013-09-11 10:01:00,69.2,67.0,29.99,NNW,346,0.0,1.0,91,0.00,,,0.01,weatherlink.com 1.10,2013-09-11 15:01:00,
2013-09-11 10:16:00,70.4,67.0,29.98,WSW,245,0.0,1.0,88,0.00,,,0.01,weatherlink.com 1.10,2013-09-11 15:16:00,
2013-09-11 10:31:00,72.3,68.0,29.99,WSW,246,0.0,1.0,85,0.00,,,0.01,weatherlink.com 1.10,2013-09-11 15:31:00,
2013-09-11 10:46:00,73.7,68.0,29.99,SW,228,0.0,1.0,81,0.00,,,0.01,weatherlink.com 1.10,2013-09-11 15:46:00,
2013-09-11 11:01:00,74.2,67.0,29.99,SW,227,0.0,2.0,77,0.00,,,0.01,weatherlink.com 1.10,2013-09-11 16:01:00,
2013-09-11 11:16:00,74.2,67.0,29.99,WNW,287,0.0,2.0,77,0.00,,,0.01,weatherlink.com 1.10,2013-09-11 16:16:00,
2013-09-11 11:31:00,74.5,67.0,30.00,SW,236,0.0,2.0,77,0.00,,,0.01,weatherlink.com 1.10,2013-09-11 16:31:00,
2013-09-11 11:46:00,74.7,67.0,30.00,SW,234,1.0,2.0,78,0.00,,,0.01,weatherlink.com 1.10,2013-09-11 16:46:00,
2013-09-11 12:01:00,74.6,67.0,30.00,SW,234,0.0,1.0,77,0.00,,,0.01,weatherlink.com 1.10,2013-09-11 17:01:00,
2013-09-11 12:16:00,74.8,67.0,30.00,NNE,26,0.0,3.0,76,0.00,,,0.01,weatherlink.com 1.10,2013-09-11 17:16:00,
2013-09-11 12:31:00,75.2,67.0,30.00,NNE,30,0.0,2.0,75,0.00,,,0.01,weatherlink.com 1.10,2013-09-11 17:31:00,
2013-09-11 12:46:00,75.1,67.0,30.00,SW,232,1.0,3.0,76,0.00,,,0.01,weatherlink.com 1.10,2013-09-11 17:46:00,
2013-09-11 13:01:00,74.8,68.0,30.00,NNW,328,0.0,2.0,79,0.00,,,0.01,weatherlink.com 1.10,2013-09-11 18:01:00,
2013-09-11 13:16:00,74.9,67.0,30.00,NW,313,0.0,3.0,76,0.00,,,0.01,weatherlink.com 1.10,2013-09-11 18:16:00,
2013-09-11 13:31:00,74.6,67.0,30.00,WSW,252,0.0,2.0,77,0.00,,,0.01,weatherlink.com 1.10,2013-09-11 18:31:00,
2013-09-11 13:46:00,74.2,67.0,29.99,WSW,239,0.0,1.0,78,0.00,,,0.01,weatherlink.com 1.10,2013-09-11 18:46:00,
2013-09-11 14:01:00,74.0,68.0,29.99,WSW,239,0.0,1.0,80,0.00,,,0.01,weatherlink.com 1.10,2013-09-11 19:01:00,
2013-09-11 14:16:00,75.2,68.0,29.99,WSW,239,1.0,2.0,79,0.00,,,0.01,weatherlink.com 1.10,2013-09-11 19:16:00,
2013-09-11 14:31:00,77.3,68.0,29.98,WSW,239,1.0,2.0,74,0.00,,,0.01,weatherlink.com 1.10,2013-09-11 19:31:00,
2013-09-11 14:46:00,78.0,69.0,29.98,West,276,0.0,1.0,73,0.00,,,0.01,weatherlink.com 1.10,2013-09-11 19:46:00,
2013-09-11 15:01:00,78.3,69.0,29.98,West,276,0.0,1.0,72,0.00,,,0.01,weatherlink.com 1.10,2013-09-11 20:01:00,
2013-09-11 15:16:00,79.0,68.0,29.97,WSW,246,2.0,2.0,69,0.00,,,0.01,weatherlink.com 1.10,2013-09-11 20:16:00,
2013-09-11 15:31:00,79.1,68.0,29.97,ESE,109,1.0,2.0,68,0.01,,,0.02,weatherlink.com 1.10,2013-09-11 20:31:00,
2013-09-11 15:46:00,79.0,67.0,29.96,North,5,0.0,3.0,67,0.01,,,0.02,weatherlink.com 1.10,2013-09-11 20:46:00,
2013-09-11 16:01:00,79.0,67.0,29.96,NNE,26,0.0,3.0,66,0.01,,,0.02,weatherlink.com 1.10,2013-09-11 21:01:00,
2013-09-11 16:16:00,78.5,67.0,29.96,NNW,329,0.0,3.0,67,0.01,,,0.02,weatherlink.com 1.10,2013-09-11 21:16:00,
2013-09-11 16:31:00,78.1,67.0,29.96,SE,131,0.0,1.0,69,0.00,,,0.02,weatherlink.com 1.10,2013-09-11 21:31:00,
2013-09-11 16:46:00,78.2,68.0,29.96,NNE,19,0.0,2.0,70,0.00,,,0.02,weatherlink.com 1.10,2013-09-11 21:46:00,
2013-09-11 17:01:00,78.6,68.0,29.96,North,355,0.0,2.0,69,0.00,,,0.02,weatherlink.com 1.10,2013-09-11 22:01:00,
2013-09-11 17:16:00,78.5,67.0,29.96,ENE,69,2.0,2.0,68,0.00,,,0.02,weatherlink.com 1.10,2013-09-11 22:16:00,
2013-09-11 17:31:00,77.9,67.0,29.96,ENE,57,0.0,1.0,70,0.00,,,0.02,weatherlink.com 1.10,2013-09-11 22:31:00,
2013-09-11 17:46:00,77.2,67.0,29.95,ENE,57,0.0,0.0,70,0.00,,,0.02,weatherlink.com 1.10,2013-09-11 22:46:00,
2013-09-11 18:01:00,76.9,67.0,29.95,ENE,57,0.0,1.0,71,0.00,,,0.02,weatherlink.com 1.10,2013-09-11 23:01:00,
2013-09-11 18:16:00,76.7,67.0,29.95,ENE,57,0.0,0.0,72,0.00,,,0.02,weatherlink.com 1.10,2013-09-11 23:16:00,
2013-09-11 18:31:00,76.2,67.0,29.95,ENE,57,0.0,1.0,73,0.00,,,0.02,weatherlink.com 1.10,2013-09-11 23:31:00,
2013-09-11 19:01:00,75.0,67.0,29.95,ENE,57,0.0,0.0,75,0.00,,,0.02,weatherlink.com 1.10,2013-09-12 00:01:00,
2013-09-11 19:16:00,74.4,67.0,29.94,ENE,57,0.0,0.0,77,0.00,,,0.02,weatherlink.com 1.10,2013-09-12 00:16:00,
2013-09-11 19:31:00,73.4,67.0,29.95,ENE,57,0.0,0.0,79,0.00,,,0.02,weatherlink.com 1.10,2013-09-12 00:31:00,
2013-09-11 19:46:00,72.2,66.0,29.94,ENE,57,0.0,0.0,82,0.00,,,0.02,weatherlink.com 1.10,2013-09-12 00:46:00,
2013-09-11 20:01:00,71.0,66.0,29.95,ENE,57,0.0,0.0,84,0.00,,,0.02,weatherlink.com 1.10,2013-09-12 01:01:00,
2013-09-11 20:16:00,70.0,65.0,29.95,ENE,57,0.0,0.0,85,0.00,,,0.02,weatherlink.com 1.10,2013-09-12 01:16:00,
2013-09-11 20:31:00,69.1,65.0,29.95,ENE,57,0.0,0.0,87,0.00,,,0.02,weatherlink.com 1.10,2013-09-12 01:31:00,
2013-09-11 20:46:00,68.2,65.0,29.96,ENE,57,0.0,0.0,88,0.00,,,0.02,weatherlink.com 1.10,2013-09-12 01:46:00,
2013-09-11 21:01:00,67.4,64.0,29.96,ENE,57,0.0,0.0,89,0.00,,,0.02,weatherlink.com 1.10,2013-09-12 02:01:00,
2013-09-11 21:16:00,67.4,65.0,29.95,ENE,57,0.0,0.0,90,0.00,,,0.02,weatherlink.com 1.10,2013-09-12 02:16:00,
2013-09-11 21:31:00,67.0,64.0,29.95,ENE,57,0.0,0.0,90,0.00,,,0.02,weatherlink.com 1.10,2013-09-12 02:31:00,
2013-09-11 21:46:00,66.8,64.0,29.95,ENE,57,0.0,0.0,90,0.00,,,0.02,weatherlink.com 1.10,2013-09-12 02:46:00,
2013-09-11 22:01:00,66.5,64.0,29.95,ENE,57,0.0,0.0,91,0.00,,,0.02,weatherlink.com 1.10,2013-09-12 03:01:00,
2013-09-11 22:32:00,66.3,64.0,29.95,ENE,57,0.0,0.0,92,0.00,,,0.02,weatherlink.com 1.10,2013-09-12 03:32:00,
2013-09-11 22:47:00,66.8,65.0,29.94,ENE,57,0.0,0.0,92,0.00,,,0.02,weatherlink.com 1.10,2013-09-12 03:47:00,
2013-09-11 23:02:00,67.2,65.0,29.95,ENE,57,0.0,0.0,91,0.00,,,0.02,weatherlink.com 1.10,2013-09-12 04:02:00,
2013-09-11 23:17:00,67.0,64.0,29.94,ENE,57,0.0,0.0,90,0.00,,,0.02,weatherlink.com 1.10,2013-09-12 04:17:00,
2013-09-11 23:32:00,66.8,64.0,29.94,ENE,57,0.0,0.0,91,0.00,,,0.02,weatherlink.com 1.10,2013-09-12 04:32:00,
2013-09-11 23:47:00,67.1,65.0,29.95,ENE,57,0.0,1.0,91,0.00,,,0.02,weatherlink.com 1.10,2013-09-12 04:47:00,